Temperature
19 20 20 20 19 19 19 19 19 19 19 19 19 19 19 19 19 19 19 19 19 19 19 19 19 19 19 19 19 19 19 19 19 19 19 19 19 19 19 19 19 19 19
20 20 20 20 20 19 19 19 19 19 19 19 19 19 19 19 19 19 19 19 19 19 19 19 19 19 19 19 19 19 19 19 19 19 19 19 19 19 19 19 19 19 19
21 20 20 20 20 20 20 20 20 19 19 19 19 19 19 19 19 19 19 19 19 19 19 19 19 19 19 19 19 19 19 19 19 19 19 19 19 19 19 19 19 19 19
21 20 20 20 20 20 20 20 20 20 19 19 19 19 19 19 19 19 19 19 19 19 19 19 19 19 19 19 19 19 19 19 19 19 18 18 18 18 18 18 18 18 18
21 21 21 21 20 20 20 20 20 20 20 19 19 19 19 19 19 19 19 19 19 19 19 19 19 19 19 19 19 19 19 19 19 19 18 18 18 18 18 18 17 17 18
21 21 21 21 21 21 20 20 20 20 20 20 19 19 19 19 19 19 19 19 19 19 19 19 19 19 19 19 19 19 18 18 18 18 18 17 17 17 17 17 17 17 17
21 21 21 21 21 21 21 20 20 20 20 19 19 19 19 19 19 19 19 19 19 19 19 19 19 19 18 18 18 18 18 18 18 18 18 17 17 17 17 17 17 17 17
21 21 21 21 21 21 21 20 20 20 20 19 19 19 19 19 19 19 19 19 19 18 18 19 18 18 18 18 18 18 18 18 18 18 18 17 17 17 17 17 17 17 17
21 21 21 21 21 21 20 20 20 20 19 19 19 19 19 19 19 19 19 18 18 18 18 18 18 18 18 18 18 18 18 17 17 18 18 17 17 17 17 17 17 17 17
21 21 21 21 21 20 20 20 20 19 19 19 19 19 19 19 19 19 18 18 18 18 18 18 18 18 18 18 18 18 18 18 18 18 18 17 17 17 17 17 17 17 17
21 20 20 20 20 20 20 19 19 19 19 19 19 19 19 19 19 19 18 18 18 18 18 18 18 18 18 18 18 18 18 18 18 18 18 18 17 17 17 17 17 17 17
21 21 21 20 20 20 20 19 19 19 19 19 19 19 19 19 19 18 18 18 18 18 17 18 18 18 18 18 18 18 18 18 18 18 18 18 17 17 17 17 17 17 17
22 21 21 21 20 20 20 20 19 19 19 19 19 19 19 19 18 18 18 18 18 17 17 17 17 18 18 18 18 18 18 18 18 18 18 17 17 17 17 17 17 17 17
21 21 21 21 21 20 20 20 19 19 19 19 19 19 19 18 18 18 18 18 17 17 17 18 18 18 18 18 18 18 18 18 18 18 17 17 17 17 17 17 17 17 17
21 21 21 21 21 20 20 20 19 19 19 19 19 19 18 18 18 18 18 17 17 17 17 18 18 18 18 18 18 18 18 18 17 17 17 17 17 17 17 17 17 17 17
22 21 21 21 21 20 20 20 19 19 19 19 18 18 18 18 18 18 18 17 17 17 17 17 17 18 18 18 18 18 18 18 17 17 17 17 17 17 17 17 17 17 17
22 22 21 21 21 20 20 20 19 19 18 18 18 18 18 18 18 18 17 17 17 17 17 17 17 17 18 18 18 18 18 18 18 18 18 18 17 17 17 17 17 17 17
22 22 21 21 21 20 20 20 19 19 18 18 18 18 18 18 18 18 17 17 17 17 17 17 17 17 17 18 18 18 18 18 18 18 18 18 18 18 17 17 17 17 17
22 22 21 21 21 21 20 20 19 19 19 18 18 18 18 18 18 18 18 18 18 18 17 17 17 17 17 17 17 17 18 18 18 18 18 18 18 18 18 18 17 17 17
22 21 21 21 21 20 20 19 19 18 18 18 18 18 18 18 18 18 18 18 18 18 18 17 17 17 17 17 17 17 17 18 18 18 18 18 18 18 18 18 18 17 17
21 21 21 20 20 20 19 19 18 18 18 18 18 18 18 18 18 18 18 18 18 18 17 17 17 17 16 16 16 16 17 17 18 18 19 19 19 19 18 18 18 18 18
20 20 20 20 20 20 20 19 19 18 18 18 18 18 18 18 18 18 18 18 18 17 17 17 16 16 16 16 16 16 16 16 18 18 19 19 19 19 19 19 19 18 18
20 20 19 19 19 19 19 19 18 18 18 17 17 18 18 18 18 18 18 18 18 17 17 17 16 16 16 16 15 15 15 16 16 17 18 19 19 19 19 19 19 18 18
19 19 19 19 19 19 18 18 17 17 17 17 17 17 18 18 18 18 18 17 17 17 16 16 16 15 15 15 15 15 15 15 15 16 17 18 18 18 18 18 18 18 18
18 18 19 19 19 19 18 18 17 17 17 17 17 17 17 17 17 17 17 17 17 16 16 15 15 15 15 15 15 15 15 15 15 15 16 17 17 17 17 17 17 18 18
17 17 17 18 18 18 18 17 16 16 16 16 16 15 16 16 16 16 16 16 16 16 15 15 15 15 15 15 15 15 15 15 15 15 15 16 16 16 17 17 17 17 17
Wind_Speed
7 13 20 19 18 17 16 16 16 15 15 14 14 15 15 15 14 13 12 10 9 8 8 9 9 10 10 10 10 10 10 10 10 10 9 9 8 8 9 10 10 10 11
13 17 21 20 18 17 16 16 15 15 14 13 13 13 13 13 13 12 11 10 9 8 7 7 8 8 9 9 8 8 8 8 7 7 7 6 6 7 8 8 9 8 10
15 17 20 20 19 18 16 16 15 14 13 13 13 13 13 12 12 12 11 10 9 8 7 6 6 7 7 8 8 7 6 6 5 5 5 3 3 4 6 7 8 9 9
15 17 19 21 19 18 16 15 15 14 13 12 12 12 12 12 12 12 11 10 9 8 7 6 5 6 6 7 7 7 6 6 4 3 2 1 1 1 4 5 7 8 9
11 16 20 22 20 18 16 15 14 14 12 11 11 10 10 10 10 10 10 9 8 7 6 5 5 5 5 6 6 6 6 5 4 3 2 3 4 4 5 7 7 8 8
10 14 19 22 21 19 18 16 15 14 12 11 10 9 8 8 8 8 7 6 6 5 5 5 4 4 4 5 5 5 5 5 5 4 4 5 6 9 10 11 10 10 10
10 13 17 21 20 20 19 17 16 14 12 11 9 8 7 7 6 6 5 5 5 4 4 4 5 5 5 5 6 6 6 6 6 5 6 7 8 11 13 15 14 13 13
12 11 15 21 20 19 18 17 16 14 12 11 10 9 8 7 7 6 6 5 5 5 5 5 6 6 6 7 7 8 8 7 7 5 5 6 9 10 11 14 17 17 17
8 8 10 15 18 18 18 17 16 14 12 11 10 10 9 8 8 7 7 7 7 7 7 7 7 8 8 8 8 9 9 9 9 6 7 7 10 11 12 14 18 19 19
7 7 7 10 12 13 15 16 15 14 12 11 10 10 10 9 9 9 8 9 9 10 10 10 10 10 10 10 11 11 11 11 9 8 8 9 12 12 12 13 17 20 20
10 7 6 6 8 10 10 13 14 14 13 12 11 11 11 9 8 8 9 11 12 13 13 13 13 13 13 12 13 13 13 10 9 9 10 12 13 13 13 14 16 19 21
14 12 8 7 6 8 9 9 9 10 10 11 9 9 9 8 8 9 10 13 15 16 16 16 16 15 14 11 12 13 11 12 10 10 11 14 15 15 15 15 15 18 20
12 12 11 9 7 7 6 6 7 7 8 9 10 9 8 7 7 8 8 11 13 15 14 14 14 12 11 11 11 11 12 12 11 11 13 16 16 16 16 15 15 15 17
10 12 10 10 8 8 7 6 7 6 6 7 9 10 8 6 6 7 8 10 11 11 11 11 10 11 11 12 12 12 13 11 11 11 13 17 17 17 15 14 13 14 15
13 13 11 11 11 9 7 5 6 6 7 8 9 10 10 7 6 7 7 9 11 11 10 9 8 8 9 10 10 11 11 12 13 13 13 17 18 17 16 15 14 14 15
14 14 12 13 12 10 9 7 5 7 9 8 10 12 13 12 9 7 7 7 9 11 11 9 8 7 7 7 9 10 11 12 13 14 14 15 17 18 17 16 15 14 14
14 13 13 14 13 12 11 9 7 8 9 9 11 14 14 14 12 9 8 8 9 12 11 8 8 7 7 8 10 10 9 11 12 13 14 14 15 16 17 17 16 15 15
12 13 14 13 13 14 12 10 7 8 8 9 11 12 14 14 14 9 8 9 10 9 7 6 6 6 7 8 8 9 9 8 11 12 13 13 13 13 15 16 17 17 16
13 12 12 12 13 14 12 10 8 7 7 8 9 9 10 11 12 9 7 7 8 6 6 7 6 6 7 8 8 9 9 9 10 11 11 12 13 14 13 14 16 17 16
8 9 11 11 10 10 8 6 4 4 4 4 4 6 7 7 7 6 5 5 5 4 5 6 7 7 7 8 9 10 9 10 9 10 11 10 11 13 13 12 12 12 15
4 5 6 7 7 7 5 6 5 4 3 3 2 3 3 3 1 2 2 3 3 4 6 6 6 8 7 5 5 7 8 10 10 10 9 9 10 10 11 11 11 11 11
2 1 2 3 4 6 6 5 3 3 3 2 2 1 1 2 2 1 2 3 3 4 6 7 6 6 5 5 5 5 5 5 5 7 7 7 8 6 7 9 10 10 11
1 0 2 3 3 4 3 2 2 2 2 2 2 1 1 2 2 2 2 3 4 4 6 7 7 9 8 6 7 7 5 5 3 3 3 3 3 3 4 5 7 9 10
1 2 4 4 4 3 3 3 3 4 4 4 3 2 1 1 2 3 3 3 4 4 5 7 7 8 9 8 6 8 8 6 5 4 3 2 2 2 3 3 4 5 8
1 2 5 6 6 5 5 5 6 4 3 2 2 2 1 1 1 3 3 3 4 4 5 6 7 7 7 8 7 5 7 7 8 7 6 4 2 2 3 4 4 4 6
1 0 1 3 3 4 5 5 4 4 5 5 3 3 1 0 1 3 4 4 4 4 4 5 5 5 5 6 6 5 5 4 5 6 8 5 4 3 3 4 4 4 5
Wind_Direction
163 160 160 154 149 143 138 134 131 128 128 127 127 130 133 137 139 140 140 139 137 130 120 112 108 108 109 110 112 114 118 122 126 123 119 119 125 126 122 117 112 109 108
152 158 160 156 153 149 145 141 139 137 136 134 133 133 135 137 138 138 138 140 140 137 130 124 121 119 120 121 122 122 122 127 134 134 125 117 122 135 135 130 127 124 119
148 157 160 160 159 157 152 149 146 145 144 143 141 139 139 141 144 143 143 144 144 143 140 137 138 139 138 138 140 141 141 140 143 145 129 102 108 140 155 146 145 140 133
149 156 160 164 165 164 160 157 154 153 153 151 148 145 145 148 152 153 152 152 153 152 151 151 153 156 157 158 160 163 165 166 170 171 152 181 236 180 184 178 170 162 153
147 155 164 166 169 169 168 167 165 164 163 159 155 154 153 155 158 161 162 163 165 168 170 172 173 172 174 178 182 187 192 195 205 218 230 256 269 258 225 213 206 196 180
146 155 169 169 171 173 174 176 176 175 173 170 166 165 164 164 166 169 173 176 181 188 197 202 204 203 200 204 209 216 224 229 233 244 260 269 271 268 251 230 220 216 206
151 159 174 172 174 176 178 181 183 183 182 180 179 179 179 179 181 185 190 196 202 209 218 227 231 233 234 237 239 243 247 254 251 243 255 264 274 278 263 234 221 220 216
158 162 175 176 178 181 183 185 187 189 189 189 190 192 195 197 200 203 212 219 223 224 228 235 242 247 251 255 257 259 261 264 267 253 247 257 275 287 276 238 221 222 220
155 158 171 178 182 186 188 190 193 195 195 195 197 201 206 212 215 218 228 238 243 244 244 246 252 258 261 263 266 267 269 270 268 256 259 257 267 278 277 251 229 227 227
161 166 168 170 176 184 192 196 198 201 204 205 205 208 214 221 228 234 239 248 253 254 253 254 257 261 265 267 271 273 274 275 270 264 261 259 264 270 273 265 244 237 235
181 180 174 168 169 172 183 198 201 205 210 213 215 218 220 226 237 246 250 253 257 258 259 260 262 263 265 266 269 273 276 270 265 267 266 265 267 270 272 270 258 247 244
191 191 185 178 167 165 180 190 194 201 206 212 216 225 227 224 233 245 255 261 265 266 266 266 265 266 268 266 269 273 271 269 268 268 268 269 269 269 269 267 265 255 250
190 191 191 184 171 169 174 175 184 192 199 209 216 222 229 233 240 248 256 264 270 275 273 268 268 265 261 260 264 267 268 269 267 266 267 269 269 268 270 271 270 261 253
185 194 189 185 179 179 179 182 187 191 200 211 219 222 222 230 239 243 249 256 263 267 267 264 258 258 259 260 262 267 270 267 264 263 265 270 271 271 273 274 270 261 255
190 192 187 185 187 186 186 190 193 200 209 216 222 227 223 228 238 244 249 254 259 263 262 260 255 256 260 264 264 264 267 268 267 264 265 270 272 271 272 269 262 256 253
194 194 188 190 192 189 194 197 200 206 214 218 225 231 229 231 236 240 248 252 256 256 254 250 250 255 264 267 269 265 264 267 268 266 264 267 267 265 264 261 257 253 253
197 193 190 194 193 192 196 201 207 210 212 219 229 233 231 231 234 237 245 253 255 253 249 250 255 258 265 268 270 268 266 265 265 263 262 260 262 261 258 255 253 253 253
195 194 195 196 193 195 197 199 207 210 213 222 229 232 233 234 235 234 240 250 252 248 241 241 246 253 258 262 268 273 270 267 266 264 262 258 255 254 251 247 247 249 250
198 195 195 196 193 197 199 198 202 204 209 218 220 222 228 230 229 225 234 246 250 242 240 245 245 240 254 260 265 272 272 270 267 267 262 258 252 247 244 242 242 245 249
205 201 201 199 195 192 191 184 184 189 196 201 206 210 211 217 220 216 229 244 245 246 252 249 255 253 252 260 271 274 273 272 268 263 262 260 255 248 240 237 239 243 244
210 211 207 201 195 179 176 177 177 187 182 179 183 194 193 194 194 201 242 267 263 256 260 260 262 266 262 251 264 276 270 264 260 259 254 253 254 248 238 232 231 232 238
250 231 203 204 198 192 191 181 173 163 165 150 136 119 70 56 31 1 312 295 285 278 276 268 261 266 263 233 240 267 286 292 266 254 248 247 252 247 241 234 228 227 231
320 246 179 191 192 198 190 160 126 125 124 138 159 180 333 4 16 354 323 313 302 287 283 279 268 265 270 257 228 235 247 253 294 292 267 257 255 251 251 244 236 234 231
196 157 159 159 157 158 160 181 205 205 195 186 181 187 256 331 0 3 352 341 327 313 296 288 279 268 269 271 253 231 233 232 237 284 297 283 283 266 279 277 267 255 242
87 145 160 159 156 154 162 178 200 207 197 155 144 176 210 301 18 19 8 2 354 339 322 309 302 286 273 270 265 253 244 240 232 237 267 287 304 285 281 285 283 275 263
36 45 195 179 166 164 152 153 172 170 156 148 162 183 193 238 42 24 15 14 4 352 341 332 323 317 303 286 276 259 247 239 225 226 240 255 271 282 289 285 279 279 274
Height
1519 1522 1525 1528 1531 1533 1535 1537 1539 1540 1542 1543 1544 1545 1547 1548 1549 1550 1551 1552 1553 1554 1555 1555 1556 1557 1558 1558 1559 1559 1559 1559 1560 1560 1560 1560 1560 1560 1560 1560 1560 1560 1560
1518 1522 1526 1529 1532 1534 1536 1538 1540 1541 1542 1544 1545 1546 1548 1549 1550 1551 1552 1553 1554 1555 1556 1557 1557 1558 1559 1559 1560 1560 1560 1561 1561 1561 1561 1562 1562 1562 1562 1562 1562 1562 1562
1518 1522 1526 1530 1533 1535 1537 1539 1541 1542 1543 1545 1546 1547 1548 1549 1550 1551 1553 1554 1555 1556 1557 1558 1559 1559 1560 1560 1561 1561 1561 1562 1562 1562 1562 1563 1563 1563 1563 1564 1564 1564 1564
1518 1522 1526 1531 1534 1536 1538 1540 1542 1543 1545 1546 1547 1549 1549 1550 1551 1552 1553 1555 1556 1557 1558 1559 1559 1560 1560 1561 1561 1561 1562 1562 1562 1563 1563 1563 1563 1564 1564 1564 1564 1565 1565
1519 1523 1526 1530 1534 1537 1539 1541 1543 1545 1546 1548 1549 1550 1551 1552 1552 1553 1555 1556 1557 1558 1559 1560 1560 1560 1561 1561 1561 1562 1562 1562 1562 1563 1563 1563 1563 1564 1564 1564 1564 1564 1565
1519 1523 1527 1530 1534 1537 1539 1542 1544 1546 1548 1549 1550 1551 1552 1553 1554 1555 1556 1557 1558 1559 1559 1560 1560 1561 1561 1561 1561 1561 1561 1561 1562 1562 1562 1562 1562 1563 1563 1563 1563 1563 1564
1520 1524 1527 1531 1534 1537 1540 1542 1544 1546 1548 1550 1551 1552 1553 1554 1555 1556 1557 1558 1558 1559 1560 1560 1560 1560 1560 1560 1560 1560 1560 1560 1560 1560 1561 1561 1561 1562 1562 1561 1562 1562 1562
1521 1524 1528 1531 1534 1537 1540 1542 1544 1546 1548 1549 1551 1552 1553 1554 1555 1556 1557 1558 1558 1559 1559 1560 1560 1560 1559 1559 1559 1558 1558 1558 1558 1558 1559 1559 1560 1560 1560 1560 1560 1560 1560
1522 1525 1528 1531 1534 1537 1540 1542 1544 1546 1548 1549 1551 1552 1553 1554 1555 1556 1557 1558 1558 1559 1559 1559 1559 1559 1558 1558 1557 1557 1556 1556 1556 1556 1556 1557 1558 1558 1558 1558 1558 1557 1558
1522 1525 1528 1530 1533 1536 1539 1541 1543 1545 1547 1549 1550 1551 1553 1554 1555 1556 1556 1557 1557 1557 1558 1558 1557 1557 1556 1556 1555 1555 1555 1554 1554 1554 1554 1554 1555 1555 1555 1555 1555 1555 1555
1521 1523 1527 1529 1532 1535 1538 1540 1542 1544 1546 1548 1549 1551 1552 1553 1554 1554 1555 1556 1556 1556 1556 1556 1555 1555 1554 1554 1553 1553 1552 1552 1552 1551 1551 1551 1551 1551 1552 1552 1552 1552 1552
1518 1521 1525 1528 1531 1534 1536 1538 1541 1543 1545 1547 1548 1549 1550 1551 1552 1553 1553 1554 1554 1555 1554 1554 1554 1553 1552 1551 1551 1550 1549 1549 1549 1548 1548 1548 1548 1548 1548 1548 1548 1549 1549
1517 1520 1523 1526 1529 1532 1534 1537 1539 1541 1543 1545 1547 1548 1549 1550 1550 1551 1551 1552 1552 1553 1552 1552 1552 1551 1550 1549 1548 1548 1547 1546 1546 1546 1546 1546 1545 1544 1544 1544 1545 1545 1545
1515 1518 1522 1524 1527 1530 1533 1535 1537 1539 1542 1543 1545 1546 1547 1548 1548 1549 1549 1550 1550 1551 1550 1550 1549 1548 1547 1546 1546 1545 1545 1544 1544 1543 1543 1543 1542 1542 1541 1541 1541 1541 1540
1514 1517 1520 1523 1525 1528 1530 1533 1535 1538 1540 1542 1543 1544 1545 1546 1547 1547 1548 1548 1548 1548 1548 1547 1547 1546 1545 1544 1543 1543 1542 1542 1541 1540 1539 1539 1539 1538 1538 1537 1537 1536 1536
1512 1516 1518 1520 1523 1526 1529 1531 1534 1536 1538 1540 1542 1542 1543 1544 1545 1545 1545 1545 1545 1545 1545 1544 1543 1543 1542 1541 1540 1540 1539 1539 1538 1537 1536 1535 1535 1534 1534 1533 1533 1533 1533
1511 1514 1516 1518 1521 1523 1526 1529 1532 1534 1536 1538 1539 1540 1541 1542 1542 1542 1542 1542 1542 1542 1541 1541 1540 1539 1538 1537 1537 1536 1535 1534 1533 1532 1531 1531 1530 1530 1530 1529 1529 1529 1529
1509 1511 1514 1516 1518 1520 1523 1526 1529 1531 1533 1535 1536 1537 1538 1538 1539 1538 1538 1538 1538 1538 1537 1537 1536 1535 1534 1533 1532 1532 1531 1530 1529 1528 1527 1526 1526 1526 1526 1525 1525 1525 1526
1507 1509 1511 1513 1515 1517 1520 1522 1525 1527 1529 1531 1532 1533 1534 1535 1535 1534 1534 1534 1534 1533 1533 1532 1531 1531 1529 1529 1528 1527 1526 1525 1524 1523 1522 1521 1521 1521 1522 1521 1521 1522 1522
1507 1508 1510 1511 1512 1514 1517 1518 1521 1522 1523 1526 1528 1529 1530 1530 1531 1530 1530 1530 1530 1529 1528 1528 1527 1525 1524 1524 1522 1521 1520 1520 1518 1517 1516 1516 1516 1517 1517 1517 1517 1518 1518
1506 1507 1508 1509 1510 1511 1512 1514 1515 1517 1518 1520 1523 1525 1525 1526 1527 1527 1527 1526 1525 1524 1523 1522 1521 1519 1518 1518 1516 1514 1513 1513 1512 1511 1511 1511 1511 1512 1512 1512 1513 1513 1514
1504 1505 1506 1507 1508 1509 1510 1510 1511 1512 1513 1515 1517 1519 1521 1522 1522 1522 1522 1521 1520 1518 1517 1516 1515 1513 1511 1512 1511 1509 1506 1505 1504 1505 1505 1504 1505 1506 1506 1507 1507 1508 1509
1501 1502 1504 1505 1506 1507 1507 1508 1507 1508 1508 1509 1511 1514 1516 1517 1517 1518 1517 1515 1514 1513 1511 1510 1509 1507 1504 1504 1505 1505 1503 1499 1500 1499 1499 1499 1499 1500 1501 1501 1501 1502 1503
1496 1498 1499 1500 1501 1502 1502 1503 1503 1502 1502 1504 1506 1509 1511 1512 1513 1513 1512 1511 1509 1507 1506 1504 1503 1501 1499 1497 1498 1498 1498 1498 1498 1495 1495 1495 1495 1496 1496 1496 1496 1497 1497
1492 1493 1493 1494 1495 1495 1495 1496 1497 1496 1497 1499 1502 1505 1506 1507 1508 1508 1508 1506 1505 1503 1502 1500 1499 1497 1495 1493 1492 1492 1492 1492 1492 1492 1491 1491 1491 1491 1491 1491 1491 1492 1492
1490 1490 1490 1490 1489 1490 1489 1489 1490 1490 1492 1494 1498 1500 1502 1503 1503 1504 1503 1502 1501 1500 1499 1497 1495 1493 1491 1490 1488 1487 1487 1487 1486 1487 1487 1486 1486 1486 1486 1486 1487 1487 1487